Time,TemperatureF,DewpointF,PressureIn,WindDirection,WindDirectionDegrees,WindSpeedMPH,WindSpeedGustMPH,Humidity,HourlyPrecipIn,Conditions,Clouds,dailyrainin,SolarRadiationWatts/m^2,SoftwareType,DateUTC
2013-05-13 00:03:00,53.0,30.0,29.60,North,353,4.0,12.0,41,0.00,,,0.00,0.000000,,2013-05-13 04:03:00,
2013-05-13 00:12:00,53.0,30.0,29.60,North,353,4.0,12.0,41,0.00,,,0.00,0.000000,,2013-05-13 04:12:00,
2013-05-13 00:42:00,49.0,31.0,29.62,NW,309,1.0,9.0,49,0.00,,,0.00,0.000000,,2013-05-13 04:42:00,
2013-05-13 00:53:00,49.0,31.0,29.62,NW,309,1.0,9.0,49,0.00,,,0.00,0.000000,,2013-05-13 04:53:00,
2013-05-13 01:02:00,49.0,31.0,29.62,NW,309,1.0,9.0,49,0.00,,,0.00,0.000000,,2013-05-13 05:02:00,
2013-05-13 01:12:00,49.0,31.0,29.62,NW,309,1.0,9.0,49,0.00,,,0.00,0.000000,,2013-05-13 05:12:00,
2013-05-13 01:42:00,48.0,35.0,29.63,NW,316,71.0,71.0,60,0.00,,,0.00,0.000000,,2013-05-13 05:42:00,
2013-05-13 01:52:00,48.0,35.0,29.63,NW,316,71.0,71.0,60,0.00,,,0.00,0.000000,,2013-05-13 05:52:00,
2013-05-13 02:01:00,48.0,35.0,29.63,NW,316,71.0,71.0,60,0.00,,,0.00,0.000000,,2013-05-13 06:01:00,
2013-05-13 02:12:00,48.0,35.0,29.63,NW,316,71.0,71.0,60,0.00,,,0.00,0.000000,,2013-05-13 06:12:00,
2013-05-13 02:42:00,44.0,34.0,29.63,North,0,2.0,71.0,68,0.00,,,0.00,0.000000,,2013-05-13 06:42:00,
2013-05-13 02:52:00,44.0,34.0,29.63,North,0,2.0,71.0,68,0.00,,,0.00,0.000000,,2013-05-13 06:52:00,
2013-05-13 03:01:00,44.0,34.0,29.63,North,0,2.0,71.0,68,0.00,,,0.00,0.000000,,2013-05-13 07:01:00,
2013-05-13 03:11:00,44.0,34.0,29.63,North,0,2.0,71.0,68,0.00,,,0.00,0.000000,,2013-05-13 07:11:00,
2013-05-13 03:42:00,46.0,39.0,29.65,NNW,343,2.0,5.0,76,0.00,,,0.00,0.000000,,2013-05-13 07:42:00,
2013-05-13 03:52:00,46.0,39.0,29.65,NNW,343,2.0,5.0,76,0.00,,,0.00,0.000000,,2013-05-13 07:52:00,
2013-05-13 04:02:00,46.0,39.0,29.65,NNW,343,2.0,5.0,76,0.00,,,0.00,0.000000,,2013-05-13 08:02:00,
2013-05-13 04:11:00,46.0,39.0,29.65,NNW,343,2.0,5.0,76,0.00,,,0.00,0.000000,,2013-05-13 08:11:00,
2013-05-13 04:42:00,44.0,37.0,29.65,NNW,331,21.0,59.0,76,0.00,,,0.00,0.000000,,2013-05-13 08:42:00,
2013-05-13 04:52:00,44.0,37.0,29.65,NNW,331,21.0,59.0,76,0.00,,,0.00,0.000000,,2013-05-13 08:52:00,
2013-05-13 05:01:00,44.0,37.0,29.65,NNW,331,21.0,59.0,76,0.00,,,0.00,0.000000,,2013-05-13 09:01:00,
2013-05-13 05:11:00,44.0,37.0,29.65,NNW,331,21.0,59.0,76,0.00,,,0.00,0.000000,,2013-05-13 09:11:00,
2013-05-13 05:42:00,43.0,39.0,29.66,SE,146,10.0,10.0,85,0.00,,,0.00,0.000000,,2013-05-13 09:42:00,
2013-05-13 05:52:00,43.0,39.0,29.66,SE,146,10.0,10.0,85,0.00,,,0.00,0.000000,,2013-05-13 09:52:00,
2013-05-13 06:03:00,43.0,39.0,29.66,SE,146,10.0,10.0,85,0.00,,,0.00,0.000000,,2013-05-13 10:03:00,
2013-05-13 06:12:00,43.0,39.0,29.66,SE,146,10.0,10.0,85,0.00,,,0.00,0.000000,,2013-05-13 10:12:00,
2013-05-13 06:33:00,40.0,38.0,29.68,NW,324,3.0,10.0,91,0.00,,,0.00,0.000000,,2013-05-13 10:33:00,
2013-05-13 06:43:00,40.0,38.0,29.68,NW,324,3.0,10.0,91,0.00,,,0.00,0.000000,,2013-05-13 10:43:00,
2013-05-13 06:53:00,40.0,38.0,29.68,NW,324,3.0,10.0,91,0.00,,,0.00,0.000000,,2013-05-13 10:53:00,
2013-05-13 07:03:00,40.0,38.0,29.68,NW,324,3.0,10.0,91,0.00,,,0.00,0.000000,,2013-05-13 11:03:00,
2013-05-13 07:12:00,40.0,38.0,29.68,NW,324,3.0,10.0,91,0.00,,,0.00,0.000000,,2013-05-13 11:12:00,
2013-05-13 07:32:00,43.0,39.0,29.70,NNW,341,3.0,7.0,85,0.00,,,0.00,38.000000,,2013-05-13 11:32:00,
2013-05-13 07:42:00,43.0,39.0,29.70,NNW,341,3.0,7.0,85,0.00,,,0.00,38.000000,,2013-05-13 11:42:00,
2013-05-13 07:52:00,43.0,39.0,29.70,NNW,341,3.0,7.0,85,0.00,,,0.00,38.000000,,2013-05-13 11:52:00,
2013-05-13 08:02:00,43.0,39.0,29.70,NNW,341,3.0,7.0,85,0.00,,,0.00,38.000000,,2013-05-13 12:02:00,
2013-05-13 08:12:00,43.0,39.0,29.70,NNW,341,3.0,7.0,85,0.00,,,0.00,38.000000,,2013-05-13 12:12:00,
2013-05-13 08:42:00,52.0,41.0,29.72,NNW,328,1.0,6.0,65,0.00,,,0.00,175.000000,,2013-05-13 12:42:00,
2013-05-13 08:52:00,52.0,41.0,29.72,NNW,328,1.0,6.0,65,0.00,,,0.00,175.000000,,2013-05-13 12:52:00,
2013-05-13 09:01:00,52.0,41.0,29.72,NNW,328,1.0,6.0,65,0.00,,,0.00,175.000000,,2013-05-13 13:01:00,
2013-05-13 09:11:00,52.0,41.0,29.72,NNW,328,1.0,6.0,65,0.00,,,0.00,175.000000,,2013-05-13 13:11:00,
2013-05-13 09:42:00,61.0,40.0,29.73,SE,131,2.0,6.0,45,0.00,,,0.00,445.000000,,2013-05-13 13:42:00,
2013-05-13 09:52:00,61.0,40.0,29.73,SE,131,2.0,6.0,45,0.00,,,0.00,445.000000,,2013-05-13 13:52:00,
2013-05-13 10:02:00,61.0,40.0,29.73,SE,131,2.0,6.0,45,0.00,,,0.00,445.000000,,2013-05-13 14:02:00,
2013-05-13 10:11:00,61.0,40.0,29.73,SE,131,2.0,6.0,45,0.00,,,0.00,445.000000,,2013-05-13 14:11:00,
2013-05-13 10:42:00,59.0,28.0,29.73,NW,324,8.0,18.0,30,0.00,,,0.00,633.000000,,2013-05-13 14:42:00,
2013-05-13 10:52:00,59.0,28.0,29.73,NW,324,8.0,18.0,30,0.00,,,0.00,633.000000,,2013-05-13 14:52:00,
2013-05-13 11:01:00,59.0,28.0,29.73,NW,324,8.0,18.0,30,0.00,,,0.00,633.000000,,2013-05-13 15:01:00,
2013-05-13 11:11:00,59.0,28.0,29.73,NW,324,8.0,18.0,30,0.00,,,0.00,633.000000,,2013-05-13 15:11:00,
2013-05-13 11:42:00,62.0,29.0,29.73,NW,310,7.0,18.0,28,0.00,,,0.00,799.000000,,2013-05-13 15:42:00,
2013-05-13 11:53:00,62.0,29.0,29.73,NW,310,7.0,18.0,28,0.00,,,0.00,799.000000,,2013-05-13 15:53:00,
2013-05-13 12:03:00,62.0,29.0,29.73,NW,310,7.0,18.0,28,0.00,,,0.00,799.000000,,2013-05-13 16:03:00,
2013-05-13 12:12:00,62.0,29.0,29.73,NW,310,7.0,18.0,28,0.00,,,0.00,799.000000,,2013-05-13 16:12:00,
2013-05-13 12:34:00,62.0,29.0,29.72,NNW,342,7.0,20.0,29,0.00,,,0.00,891.000000,,2013-05-13 16:34:00,
2013-05-13 12:43:00,62.0,29.0,29.72,NNW,342,7.0,20.0,29,0.00,,,0.00,891.000000,,2013-05-13 16:43:00,
2013-05-13 12:53:00,62.0,29.0,29.72,NNW,342,7.0,20.0,29,0.00,,,0.00,891.000000,,2013-05-13 16:53:00,
2013-05-13 13:02:00,62.0,29.0,29.72,NNW,342,7.0,20.0,29,0.00,,,0.00,891.000000,,2013-05-13 17:02:00,
2013-05-13 13:12:00,62.0,29.0,29.72,NNW,342,7.0,20.0,29,0.00,,,0.00,891.000000,,2013-05-13 17:12:00,
2013-05-13 13:42:00,64.0,32.0,29.70,NW,305,6.0,19.0,30,0.00,,,0.00,593.000000,,2013-05-13 17:42:00,
2013-05-13 13:54:00,64.0,32.0,29.70,NW,305,6.0,19.0,30,0.00,,,0.00,593.000000,,2013-05-13 17:54:00,
2013-05-13 14:04:00,64.0,32.0,29.70,NW,305,6.0,19.0,30,0.00,,,0.00,593.000000,,2013-05-13 18:04:00,
2013-05-13 14:13:00,64.0,32.0,29.70,NW,305,6.0,19.0,30,0.00,,,0.00,593.000000,,2013-05-13 18:13:00,
2013-05-13 14:42:00,63.0,29.0,29.68,NW,304,9.0,19.0,27,0.01,,,0.01,516.000000,,2013-05-13 18:42:00,
2013-05-13 14:52:00,63.0,29.0,29.68,NW,304,9.0,19.0,27,0.01,,,0.01,516.000000,,2013-05-13 18:52:00,
2013-05-13 15:01:00,63.0,29.0,29.68,NW,304,9.0,19.0,27,0.01,,,0.01,516.000000,,2013-05-13 19:01:00,
2013-05-13 15:12:00,63.0,29.0,29.68,NW,304,9.0,19.0,27,0.01,,,0.01,516.000000,,2013-05-13 19:12:00,
2013-05-13 15:44:00,66.0,31.0,29.66,WNW,299,7.0,19.0,27,0.00,,,0.01,863.000000,,2013-05-13 19:44:00,
2013-05-13 15:53:00,66.0,31.0,29.66,WNW,299,7.0,19.0,27,0.00,,,0.01,863.000000,,2013-05-13 19:53:00,
2013-05-13 16:02:00,66.0,31.0,29.66,WNW,299,7.0,19.0,27,0.00,,,0.01,863.000000,,2013-05-13 20:02:00,
2013-05-13 16:11:00,66.0,31.0,29.66,WNW,299,7.0,19.0,27,0.00,,,0.01,863.000000,,2013-05-13 20:11:00,
2013-05-13 16:34:00,64.0,29.0,29.64,WNW,282,8.0,19.0,27,0.00,,,0.01,680.000000,,2013-05-13 20:34:00,
2013-05-13 16:44:00,64.0,29.0,29.64,WNW,282,8.0,19.0,27,0.00,,,0.01,680.000000,,2013-05-13 20:44:00,
2013-05-13 16:53:00,64.0,29.0,29.64,WNW,282,8.0,19.0,27,0.00,,,0.01,680.000000,,2013-05-13 20:53:00,
2013-05-13 17:03:00,64.0,29.0,29.64,WNW,282,8.0,19.0,27,0.00,,,0.01,680.000000,,2013-05-13 21:03:00,
2013-05-13 17:14:00,64.0,29.0,29.64,WNW,282,8.0,19.0,27,0.00,,,0.01,680.000000,,2013-05-13 21:14:00,
2013-05-13 17:44:00,64.0,29.0,29.63,NW,304,6.0,14.0,27,0.00,,,0.01,521.000000,,2013-05-13 21:44:00,
2013-05-13 17:53:00,64.0,29.0,29.63,NW,304,6.0,14.0,27,0.00,,,0.01,521.000000,,2013-05-13 21:53:00,
2013-05-13 18:03:00,64.0,29.0,29.63,NW,304,6.0,14.0,27,0.00,,,0.01,521.000000,,2013-05-13 22:03:00,
2013-05-13 18:12:00,64.0,29.0,29.63,NW,304,6.0,14.0,27,0.00,,,0.01,521.000000,,2013-05-13 22:12:00,
2013-05-13 18:43:00,62.0,33.0,29.62,NW,325,3.0,12.0,33,0.00,,,0.01,275.000000,,2013-05-13 22:43:00,
2013-05-13 18:52:00,62.0,33.0,29.62,NW,325,3.0,12.0,33,0.00,,,0.01,275.000000,,2013-05-13 22:52:00,
2013-05-13 19:02:00,62.0,33.0,29.62,NW,325,3.0,12.0,33,0.00,,,0.01,275.000000,,2013-05-13 23:02:00,
2013-05-13 19:13:00,62.0,33.0,29.62,NW,325,3.0,12.0,33,0.00,,,0.01,275.000000,,2013-05-13 23:13:00,
2013-05-13 19:42:00,64.0,33.0,29.62,North,359,3.0,10.0,31,0.00,,,0.01,215.000000,,2013-05-13 23:42:00,
2013-05-13 19:54:00,64.0,33.0,29.62,North,359,3.0,10.0,31,0.00,,,0.01,215.000000,,2013-05-13 23:54:00,
2013-05-13 20:02:00,64.0,33.0,29.62,North,359,3.0,10.0,31,0.00,,,0.01,215.000000,,2013-05-14 00:02:00,
2013-05-13 20:13:00,64.0,33.0,29.62,North,359,3.0,10.0,31,0.00,,,0.01,215.000000,,2013-05-14 00:13:00,
2013-05-13 20:42:00,55.0,40.0,29.65,NW,321,1.0,5.0,57,0.00,,,0.01,38.000000,,2013-05-14 00:42:00,
2013-05-13 20:52:00,55.0,40.0,29.65,NW,321,1.0,5.0,57,0.00,,,0.01,38.000000,,2013-05-14 00:52:00,
2013-05-13 21:02:00,55.0,40.0,29.65,NW,321,1.0,5.0,57,0.00,,,0.01,38.000000,,2013-05-14 01:02:00,
2013-05-13 21:11:00,55.0,40.0,29.65,NW,321,1.0,5.0,57,0.00,,,0.01,38.000000,,2013-05-14 01:11:00,
2013-05-13 21:32:00,50.0,43.0,29.68,North,355,4.0,6.0,76,0.00,,,0.01,0.000000,,2013-05-14 01:32:00,
2013-05-13 21:43:00,50.0,43.0,29.68,North,355,4.0,6.0,76,0.00,,,0.01,0.000000,,2013-05-14 01:43:00,
2013-05-13 21:53:00,50.0,43.0,29.68,North,355,4.0,6.0,76,0.00,,,0.01,0.000000,,2013-05-14 01:53:00,
2013-05-13 22:02:00,50.0,43.0,29.68,North,355,4.0,6.0,76,0.00,,,0.01,0.000000,,2013-05-14 02:02:00,
2013-05-13 22:12:00,50.0,43.0,29.68,North,355,4.0,6.0,76,0.00,,,0.01,0.000000,,2013-05-14 02:12:00,
2013-05-13 22:32:00,45.0,41.0,29.72,NNW,342,4.0,6.0,87,0.00,,,0.01,0.000000,,2013-05-14 02:32:00,
2013-05-13 22:42:00,45.0,41.0,29.72,NNW,342,4.0,6.0,87,0.00,,,0.01,0.000000,,2013-05-14 02:42:00,
2013-05-13 22:52:00,45.0,41.0,29.72,NNW,342,4.0,6.0,87,0.00,,,0.01,0.000000,,2013-05-14 02:52:00,
2013-05-13 23:01:00,45.0,41.0,29.72,NNW,342,4.0,6.0,87,0.00,,,0.01,0.000000,,2013-05-14 03:01:00,
2013-05-13 23:11:00,45.0,41.0,29.72,NNW,342,4.0,6.0,87,0.00,,,0.01,0.000000,,2013-05-14 03:11:00,
2013-05-13 23:43:00,49.0,37.0,29.75,North,358,4.0,8.0,64,0.00,,,0.01,0.000000,,2013-05-14 03:43:00,
2013-05-13 23:53:00,49.0,37.0,29.75,North,358,4.0,8.0,64,0.00,,,0.01,0.000000,,2013-05-14 03:53:00,